Mobile Downtown, AL

2:39 PM CDT on May 25, 2018 (GMT -0500)
Mobile Downtown

Weather History for KBFM - March, 2013

Change the Weather History Date:

Tuesday, March 19, 2013

  Actual Average Record
Temperature  
Mean Temperature 67 °F -  
Max Temperature 78 °F 67 °F 82 °F (2011)
Min Temperature 57 °F 48 °F 43 °F (2005)
Cooling Degree Days 2    
Growing Degree Days 17 (Base 50)    
Moisture  
Dew Point 52 °F    
Average Humidity 65    
Maximum Humidity 94    
Minimum Humidity 30    
Precipitation  
Precipitation 0.00 in - - ()
Sea Level Pressure  
Sea Level Pressure 29.99 in    
Wind  
Wind Speed 11 mph (NNE)    
Max Wind Speed 18 mph    
Max Gust Speed 28 mph    
Visibility 10 miles    
Events      
Averages and records for this station are not official NWS values.
T = Trace of Precipitation, MM = Missing Value Source: NWS Daily Summary

Daily Weather History Graph

Daily Weather History Graph

Search for Another Location

Airport or City:

Astronomy

Mar. 19, 2013 Rise Set
Actual Time 6:56 AM CDT 7:03 PM CDT
Civil Twilight 6:32 AM CDT 7:27 PM CDT
Nautical Twilight 6:05 AM CDT 7:55 PM CDT
Astronomical Twilight 5:36 AM CDT 8:23 PM CDT
Moon 12:09 PM CDT (3/19) 1:27 AM CDT (3/19)
Length of Visible Light 12h 54m
Length of Day
12h 06m
Waxing Crescent, 50% of the Moon is Illuminated
Mar 19
Waxing Crescent
Mar 19
First Quarter
Mar 27
Full
Apr 2
Last Quarter
Apr 10
New

Hourly Weather History & Observations

Time (CDT) Temp. Dew Point Humidity Pressure Visibility Wind Dir Wind Speed Gust Speed Precip Events Conditions
12:02 AM 64.4 °F 62.6 °F 94% 29.92 in 3.0 mi North 18.4 mph 27.6 mph N/A   Mostly Cloudy
12:36 AM 62.6 °F 57.2 °F 82% 29.91 in 10.0 mi NE 12.7 mph - N/A   Overcast
12:53 AM 62.1 °F 55.9 °F 80% 29.91 in 10.0 mi NNE 5.8 mph - N/A   Scattered Clouds
1:53 AM 62.1 °F 57.0 °F 84% 29.93 in 10.0 mi NNW 9.2 mph - N/A   Mostly Cloudy
2:53 AM 62.1 °F 55.9 °F 80% 29.94 in 10.0 mi NNW 10.4 mph - N/A   Scattered Clouds
3:25 AM 62.6 °F 57.2 °F 82% 29.94 in 10.0 mi North 13.8 mph - N/A   Overcast
3:53 AM 61.0 °F 57.0 °F 87% 29.95 in 10.0 mi North 15.0 mph 20.7 mph N/A   Mostly Cloudy
4:18 AM 60.8 °F 55.4 °F 82% 29.95 in 10.0 mi North 13.8 mph 20.7 mph N/A   Overcast
4:53 AM 61.0 °F 55.9 °F 83% 29.98 in 10.0 mi North 11.5 mph 19.6 mph N/A   Overcast
5:53 AM 60.1 °F 55.0 °F 83% 30.00 in 10.0 mi NNE 11.5 mph 20.7 mph N/A   Overcast
6:53 AM 59.0 °F 54.0 °F 83% 30.01 in 10.0 mi North 13.8 mph - N/A   Mostly Cloudy
7:53 AM 59.0 °F 53.1 °F 81% 30.04 in 10.0 mi North 10.4 mph - N/A   Mostly Cloudy
8:53 AM 57.9 °F 50.0 °F 75% 30.05 in 10.0 mi North 16.1 mph - 0.00 in   Scattered Clouds
9:53 AM 60.1 °F 51.1 °F 72% 30.06 in 10.0 mi NE 12.7 mph - N/A   Clear
10:53 AM 64.0 °F 51.1 °F 63% 30.06 in 10.0 mi North 9.2 mph - N/A   Clear
11:53 AM 66.0 °F 48.9 °F 54% 30.06 in 10.0 mi NNE 8.1 mph - N/A   Clear
12:53 PM 70.0 °F 48.0 °F 46% 30.04 in 10.0 mi NNE 6.9 mph - N/A   Clear
1:53 PM 72.0 °F 46.9 °F 41% 30.02 in 10.0 mi NNE 5.8 mph - N/A   Clear
2:53 PM 75.9 °F 46.9 °F 36% 30.00 in 10.0 mi Variable 3.5 mph - N/A   Partly Cloudy
3:53 PM 77.0 °F 45.0 °F 32% 29.98 in 10.0 mi NNE 4.6 mph - N/A   Scattered Clouds
4:53 PM 77.0 °F 43.0 °F 30% 29.96 in 10.0 mi NNE 5.8 mph - N/A   Partly Cloudy
5:53 PM 75.0 °F 46.9 °F 37% 29.96 in 10.0 mi NE 5.8 mph - N/A   Partly Cloudy
6:53 PM 72.0 °F 48.9 °F 44% 29.97 in 10.0 mi North 6.9 mph - N/A   Clear
7:53 PM 66.9 °F 52.0 °F 59% 30.00 in 10.0 mi Calm Calm - N/A   Clear
8:53 PM 60.1 °F 55.0 °F 83% 30.01 in 10.0 mi Calm Calm - N/A   Clear
9:53 PM 64.9 °F 54.0 °F 68% 30.03 in 10.0 mi NE 6.9 mph - N/A   Clear
10:53 PM 64.0 °F 39.9 °F 41% 30.04 in 10.0 mi North 8.1 mph - N/A   Clear
11:53 PM 62.1 °F 41.0 °F 46% 30.03 in 10.0 mi North 8.1 mph - N/A   Clear